Location: Aranbee
(34.0885°N, 118.2342°W)
Time: 09:31:03
(UTC+00:00)

Courier 1B Rocket - Pass Details

Date: 04 December 2020
Orbit: 920 x 1202 km, 28.2° (Epoch: 27 January)

Event Time Altitude Azimuth Distance (km) Brightness Sun altitude
Rises 15:10:19 0° 270° (W) 4,090 7.7 4.0°
Reaches altitude 10° 15:13:20 10° 264° (W) 3,131 7.2 4.6°
Maximum altitude 15:20:35 42° 196° (SSW) 1,624 6.5 5.9°
Drops below altitude 10° 15:27:40 10° 128° (SE) 3,050 10.6 7.1°
Sets 15:30:35 0° 122° (ESE) 3,977 10.8 7.6°
